Regional Weather Roundup
Issued by NWS Mt. Holly, NJ

Current Version | Previous Version | Text Only | Print | Product List | Glossary Off
Versions: 1 2 3 4 5 6 7 8 9 10 11 12 13 14 15 16 17 18 19 20 21 22 23 24 25 26 27 28 29 30 31 32 33 34 35 36 37 38 39 40 41 42 43 44 45 46 47 48 49 50

000
ASUS41 KPHI 030311
RWRPHI

REGIONAL WEATHER ROUNDUP
NATIONAL WEATHER SERVICE MOUNT HOLLY NJ
1000 PM EST MON MAR 02 2015

NOTE:  "FAIR" INDICATES FEW OR NO CLOUDS BELOW 12,000 FEET WITH NO
SIGNIFICANT WEATHER AND/OR OBSTRUCTIONS TO VISIBILITY.

 * = STATION DOES NOT REPORT PRECIPITATION (E.G. RAIN, SNOW, ETC.)
        OR FOG.

NJZ015>026-030400-
SOUTHERN NEW JERSEY

CITY           SKY/WX    TMP DP  RH WIND       PRES   REMARKS
POMONA         CLEAR     30  17  58 W10       30.36R WCI  21
RIO GRANDE*    CLEAR     32  18  55 W8        30.39R WCI  25
MILLVILLE      CLEAR     30  17  58 W8        30.36R WCI  22
WRIGHTSTOWN    CLEAR     30  13  50 CALM      30.32R
MOUNT HOLLY    FAIR      31  14  49 CALM      30.36R
TRENTON        CLEAR     30   7  37 N5        30.34R WCI  25

$$
NJZ001>014-030400-
NORTHERN NEW JERSEY

CITY           SKY/WX    TMP DP  RH WIND       PRES   REMARKS
SUSSEX         CLEAR     26   8  46 VRB7      30.33R WCI  18
ANDOVER*         N/A     25   7  46 N9G20     30.32R WCI  15
MORRISTOWN     CLEAR     28   9  43 N7G18     30.34R WCI  21
NEWARK         PTCLDY    30   9  41 NW13      30.35R WCI  20
TETERBORO      CLEAR     28   8  43 NW16G23   30.33R WCI  16
CALDWELL       CLEAR     28   8  43 NW13G22   30.35R WCI  17
SOMERVILLE     CLEAR     30   7  37 NW8       30.33R WCI  22
ALLAIRE*       CLEAR     30   9  40 NW12      30.33R WCI  21
TOMS RIVER*    CLEAR     30  12  47 NW5       30.35R WCI  25

$$
PAZ043-044-047-054-055-060>062-066>071-030400-
EASTERN PENNSYLVANIA

CITY           SKY/WX    TMP DP  RH WIND       PRES   REMARKS
PHILADELPHIA   PTCLDY    30  16  56 W9        30.37R WCI  22
NORTH PHILA    CLEAR     31  12  45 W7        30.37R WCI  24
BLUE BELL      CLEAR     32  14  47 CALM      30.34R
DOYLESTOWN     CLEAR     27  10  49 NW5       30.33R WCI  22
QUAKERTOWN*    CLEAR     27   9  46 CALM      30.34R
POTTSTOWN      CLEAR     27  12  53 NW5       30.36R WCI  22
LANCASTER      FAIR      26  14  60 W9        30.36R WCI  17
COATESVILLE    CLEAR     28  18  64 W13       30.34R WCI  18
READING        CLEAR     27  11  51 W5        30.35R WCI  22
ALLENTOWN      CLEAR     28   5  37 N12       30.35R WCI  18
MOUNT POCONO   CLEAR     19   6  57 NW18G26   30.21S WCI   4
HAZLETON       CLEAR     23   5  46 NW15G22   30.29S WCI  10
WILKES BARRE   CLEAR     23   8  52 N14       30.33R WCI  11

$$
DEZALL-MDZ008-012-015-019-020-030400-
DELAWARE AND EASTERN MARYLAND

CITY           SKY/WX    TMP DP  RH WIND       PRES   REMARKS
WILMINGTON     CLEAR     30  14  51 W7        30.38R WCI  23
DOVER          CLEAR     32  16  53 W7        30.40R WCI  25
GEORGETOWN     CLEAR     30  17  58 W5        30.40R WCI  25
EASTON         CLEAR     33  20  59 CALM      30.45R
PATUXENT       CLEAR     34  17  50 N12       30.41R WCI  25
OCEAN CITY     CLEAR     27  19  72 CALM      30.40R
WALLOPS ISLAND CLEAR     32  16  51 N3        30.40R
CAMBRIDGE      CLEAR     36  19  51 NW7       30.41R WCI  30
SALISBURY      CLEAR     32  18  56 NW6       30.40R WCI  26

$$
PAZ001-021-NYZ056-072-MDZ011-DCZ001-030400-
OTHER NEARBY LOCATIONS

CITY           SKY/WX    TMP DP  RH WIND       PRES   REMARKS
HARRISBURG     PTCLDY    27  14  58 NW8       30.38R WCI  19
STATE COLLEGE  CLEAR     24   8  52 NW8       30.37R WCI  15
WILLIAMSPORT   CLEAR     25   6  44 NW10      30.38R WCI  15
BINGHAMTON     MOCLDY    17   9  70 NW10G20   30.28R WCI   5
NEW YORK CITY  CLEAR     30   8  39 NW16G23   30.35R WCI  19
BALTIMORE      PTCLDY    29  14  53 NW6       30.41R WCI  23
WASHINGTON DC  PTCLDY    35  16  45 N7        30.44R WCI  29

$$



USA.gov is the U.S. government's official web portal to all federal, state and local government web resources and services.